ジャコビニ-ツィナー彗星

21P/Giacobini-Zinner (2018)

English version
Home page
Updated on October 22, 2018

---------------------------------------------------------------------

・ プロフィール

・ 写真集

・ 軌道要素

Epoch 2018 Aug. 30.0 TT = JDT 2458360.5
T 2018 Sept. 10.27808 TT                                MPCW
q   1.0128197            (2000.0)            P               Q
n   0.15064716     Peri.  172.86127     +0.98463140     -0.10353819
a   3.4980721      Node   195.39215     +0.12221394     +0.98376974
e   0.7104635      Incl.   31.99774     +0.12475883     -0.14655013
P   6.54
From 2292 observations 2005 Apr. 22-2018 Aug. 12, mean residual 0".7.
     Nongravitational parameters A1 = +0.29, A2 = -0.1248.

・ 星図

・ 光度変化

        m1 = 8.7 + 5 logΔ + 18.5 log r  [ ,0]  (              〜2018年 9月10日)
        m1 = 8.8 + 5 logΔ + 15.0 log r  [0, ]  (2018年 9月10日〜              )

---------------------------------------------------------------------

軌道要素はM.P.E.C. 2018-Q24に掲載されたものです。
星図はステラナビゲータ Ver.8 (アストロアーツ) で作成したものです。
光度グラフはComet for Windowsで作成したものです。

---------------------------------------------------------------------

Copyright(C) Seiichi Yoshida (comet@aerith.net). All rights reserved.